Showing default

FLOCK 4H 27, 66730

Orbit data source: Space-Track

FLOCK 4H 27, 66730 is a payload satellite owned by Planet (US) in SSO that was launched on Fri, 28 Nov 2025 UTC via an FALCON 9 launch vehicle from the Air Force Western Test Range (AFWTR). Payload-class satellites include a variety of spacecraft equipped with specific instruments for various scientific and technological missions. These include communications satellites like Starlink; space stations such as the ISS; scientific satellites like the Hubble; Earth observation satellites from companies like Planet Labs, Umbra, and HawkEye 360; GPS; miniature CubeSats for education and research; and military/defense satellites.

Loading next visibility...
Identifier
66730, 2025-276BS
Orbit
SSO
Country
Flag of USUS
Related business
Manufacturer
Planet
Mission
Operational Commercial Imaging
Bus & Motor
CUBESAT 3U, Unknown motor
Mass
5.7 kg wet, 5.7 kg dry
Launch date (UTC)
2025-11-28 (6 months ago)
Launch vehicle
FALCON 9
Launch site
Air Force Western Test Range (AFWTR)
Object type
Payload
Rocket body
Debris
Shape & HBR
Box + 2 Pan, 1.0 m
Radar Cross Section
0.072 m²

Expand to show TLE details & history
Last TLE update: 10 hours ago

TLE from 10 hours ago
0 FLOCK 4H 27
1 66730U 25276BS  26144.76045350  .00005266  00000-0  24652-3 0  9992
2 66730  97.4172 218.7770 0002021  84.8529 275.2937 15.20154353 26874
Epoch: 2026-05-24T18:15Z
TLE epoch observation values (Epoch: 2026-05-24T18:15:03.182Z)
Latitude
Longitude
62.65577°
Altitude
508.337 km
Speed
7.61 km/s
True Right ascension
14h 35m 06s
True Declination
0° 00' 00"
Sunlit
Object was in full shadow at epoch
Visualization orbit readout
Latitude
Unknown
Longitude
Unknown
Altitude
Unknown
Speed
Unknown
Apparent Right ascension
Unknown
Apparent Declination
Unknown
Sunlit
N/A
Visualization observer readout
Local Sidereal Time
13:55:10
Azimuth
Unknown
Elevation
Unknown
Doppler factor
Unknown
Orbital elements
Apogee altitude
503.731 km
Perigee altitude
500.95 km
Semi-major axis
6,880.478 km
Eccentricity
0.0002
Inclination
97.4172°
RAAN
218.777°
Arg. of periapsis
84.8529°
True anomaly
275.27064°
Mean anomaly
275.2937°
Eccentric anomaly
275.28217°
Mean motion
3.8029 °/min
Orbital period
94.66 mins
BSTAR
0.00024652
Loading maneuver chart data...
Computing Atmospheric mass density...
Loading historical data...
Loading historical data...
Loading historical data...
Loading historical data...
Loading historical data...
Loading historical data...
Loading historical data...

Documentation

Showing up to 5 results
|